Location: Cranford
(40.6578°N, 74.3024°W)
Time: 07:54:42
(UTC+00:00)

ISS - Visible Passes

Search period start: 04 December 2022 00:00
Search period end: 14 December 2022 00:00
Orbit: 414 x 420 km, 51.6° (Epoch: 04 December)

Date Brightness Start Highest point End Pass type
(mag) Time Alt. Az. Time Alt. Az. Time Alt. Az.
04 Dec -2.9 22:18:05 10° NW 22:21:09 32° NNE 22:23:39 13° E visible
04 Dec -1.4 23:54:52 10° WNW 23:56:37 24° W 23:56:37 24° W visible
05 Dec -3.3 23:06:32 10° WNW 23:09:50 58° SW 23:11:20 28° SSE visible
06 Dec -3.9 22:18:20 10° NW 22:21:41 80° NE 22:25:01 10° ESE visible
06 Dec -0.5 23:56:54 10° WSW 23:57:59 11° SW 23:59:04 10° SSW visible
07 Dec -1.0 23:07:30 10° W 23:10:00 20° SW 23:12:29 10° S visible
08 Dec -1.9 22:18:52 10° WNW 22:21:55 34° SW 22:24:59 10° SSE visible
10 Dec -0.2 22:20:31 10° WSW 22:21:52 12° SW 22:23:12 10° SSW visible
